Showing default

COSMOS 1693, 16141

Orbit data source: Space-Track

COSMOS 1693, 16141 is a payload satellite owned by GUKOS (CIS) in LEO that was launched on Wed, 09 Oct 1985 UTC via a TSIKLON-3 launch vehicle from the Plesetsk Missile And Space Complex (PKMTR). Payloads include a variety of satellites, spacecraft, and rockets equipped with specific instruments for various scientific and technological missions. These include communications satellites like Starlink; space stations such as the ISS; scientific satellites like the Hubble; Earth observation satellites from companies like Planet Labs, Umbra, and HawkEye 360; GPS; miniature CubeSats for education and research; and military/defense satellites.

Loading next visibility...
COSMOS 1693 details
Identifier
16141, 1985-094D
Orbit
LEO
Last TLE update11 hours ago
Origin
Flag of CISGUKOS (CIS)
ManufacturerNPO PM
MissionDefense Communications
Bus & MotorSTRELA-3, Unknown motor
Mass225 kg wet, 225 kg dry
Launch date (UTC)
1985-10-09 (39 years ago)
Launch vehicle
TSIKLON-3
Launch site
Plesetsk Missile And Space Complex (PKMTR)
Object type
Payload
Rocket body
Debris
Shape & HBRCyl, 1.6 m
Radar Cross Section1.257 m², Medium (>0.1 m² and < 1m²)

Expand to show TLE details & history

TLE from 11 hours ago
0 COSMOS 1693
1 16141U 85094D   24361.39075646  .00000017  00000-0  32250-4 0  9999
2 16141  82.6094 235.4041 0014871 175.4507   0.1087 12.64356313809572
Epoch: 2024-12-26T09:22Z
Definitive object data (Epoch: 2024-12-26T09:22:41.358Z)
Latitude4.31961°
Longitude178.80235°
Altitude1,395.717 km
Speed7.168 km/s
True Right ascension03h 39m 22s
True Declination4° 17' 46"
Sunlit
Object was in full shadow at TLE epoch
Visualization TLE readout
Latitude-1.51238°
Longitude179.25262°
Altitude1,396.468 km
Speed7.167 km/s
Apparent Right ascension05h 21m 41s
Apparent Declination-21° 51' 31"
Sunlit
Object is in full shadow
Visualization observer readout
Local Sidereal Time20:11:06
Azimuth76.118° E
Elevation-49.902°
Doppler factor1
Orbital elements
Apogee altitude1,413.902 km
Perigee altitude1,390.761 km
Semi-major axis7,780.469 km
Eccentricity0.0014871
Inclination82.6094°
RAAN235.4041°
Arg. of periapsis175.4507°
True anomaly0.10902°
Mean anomaly0.1087°
Eccentric anomaly0.10886°
Mean motion3.16253 °/min
BSTAR0.00003225
Orbital period113.83 mins
Loading maneuver chart data...
Loading historical data...
Loading historical data...
Loading historical data...
Loading historical data...
Loading historical data...
Loading historical data...
Loading historical data...

COSMOS 1693 Visibility forecast

Observer location: undefined°, undefined

Span
Click to sort rows by Start time (UTC) header in descending order
Start Az.
Max El. time (UTC)
Max El. Az.
Max El.
End time (UTC)
End Az.
12 mins2024-12-27 02:09:13.632Z16.994° NNE2024-12-27 02:15:13.632Z65.141° ENE22.101°2024-12-27 02:21:13.632Z115.421° SE
14 mins2024-12-27 04:04:13.632Z345.984° N2024-12-27 04:11:13.632Z254.353° W42.977°2024-12-27 04:18:13.632Z187.093° SSW
11 mins2024-12-27 14:58:13.632Z122.841° SE2024-12-27 15:03:13.632Z81.136° E21.451°2024-12-27 15:09:13.632Z33.926° NE
15 mins2024-12-27 16:50:13.632Z197.954° SSW2024-12-27 16:57:13.632Z279.686° WNW43.143°2024-12-27 17:05:13.632Z2.842° NNE
4 mins2024-12-27 18:52:13.632Z289.73° WNW2024-12-27 18:53:13.632Z297.201° NW12.241°2024-12-27 18:56:13.632Z319.425° NNW
|